Falfurrias, TX

11:29 PM CST on December 05, 2019 (GMT -0600)
Falfurrias

Weather History for KBKS - November, 2019

Change the Weather History Date:

Tuesday, November 19, 2019

  Actual Average (KNQI) Record (KNQI)
Temperature  
Mean Temperature 70 °F -  
Max Temperature 84 °F 73 °F 93 °F (2011)
Min Temperature 55 °F 54 °F 36 °F (2010)
Cooling Degree Days 4    
Growing Degree Days 20 (Base 50)    
Moisture  
Dew Point 60 °F    
Average Humidity 77    
Maximum Humidity 94    
Minimum Humidity 42    
Precipitation  
Precipitation 0.00 in - - ()
Sea Level Pressure  
Sea Level Pressure 29.95 in    
Wind  
Wind Speed 2 mph ()    
Max Wind Speed 10 mph    
Max Gust Speed 16 mph    
Visibility 6.0 miles    
Events      
Averages and records for this station are not official NWS values.
T = Trace of Precipitation, MM = Missing Value Source: Averaged Metar Reports

Daily Weather History Graph

Daily Weather History Graph

Search for Another Location

Airport or City:

Astronomy

Nov. 19, 2019 Rise Set
Actual Time 6:55 AM CST 5:39 PM CST
Civil Twilight 6:30 AM CST 6:04 PM CST
Nautical Twilight 6:02 AM CST 6:32 PM CST
Astronomical Twilight 5:34 AM CST 7:00 PM CST
Moon No Moon Rise 1:10 PM CST (11/19)
Length of Visible Light 11h 33m
Length of Day
10h 44m
Waning Gibbous, 51% of the Moon is Illuminated
Nov 19
Waning Gibbous
Nov 19
Last Quarter
Nov 26
New
Dec 4
First Quarter
Dec 11
Full

Hourly Weather History & Observations

Time (CST) Temp. Heat Index Dew Point Humidity Pressure Visibility Wind Dir Wind Speed Gust Speed Precip Events Conditions
12:15 AM 60.1 °F - 58.1 °F 93% 29.95 in 0.5 mi Calm Calm - N/A   Overcast
12:35 AM 60.6 °F - 58.5 °F 93% 29.95 in 0.2 mi Calm Calm - N/A   Overcast
12:55 AM 60.8 °F - 58.8 °F 93% 29.95 in 0.2 mi Calm Calm - N/A   Overcast
1:15 AM 60.1 °F - 57.9 °F 93% 29.95 in 0.2 mi Calm Calm - N/A   Overcast
1:35 AM 59.2 °F - 57.2 °F 93% 29.95 in 0.2 mi Calm Calm - N/A   Overcast
1:55 AM 59.2 °F - 57.2 °F 93% 29.95 in 0.5 mi Calm Calm - N/A   Overcast
2:15 AM 59.0 °F - 57.0 °F 93% 29.95 in 0.2 mi Calm Calm - N/A   Overcast
2:35 AM 58.6 °F - 56.7 °F 93% 29.94 in 0.5 mi Calm Calm - N/A   Overcast
2:55 AM 58.6 °F - 56.7 °F 93% 29.94 in 0.2 mi Calm Calm - N/A   Overcast
3:15 AM 58.1 °F - 56.3 °F 94% 29.94 in 0.2 mi Calm Calm - N/A   Overcast
3:35 AM 58.1 °F - 56.3 °F 94% 29.94 in 0.8 mi Calm Calm - N/A   Overcast
3:55 AM 58.5 °F - 56.5 °F 93% 29.95 in 0.2 mi Calm Calm - N/A   Overcast
4:15 AM 58.5 °F - 56.5 °F 93% 29.95 in 0.2 mi Calm Calm - N/A   Overcast
4:55 AM 57.2 °F - 55.2 °F 93% 29.96 in 0.8 mi Calm Calm - N/A   Mostly Cloudy
5:15 AM 56.5 °F - 54.5 °F 93% 29.96 in 0.5 mi Calm Calm - N/A   Overcast
5:35 AM 56.3 °F - 54.5 °F 94% 29.96 in 0.2 mi Calm Calm - N/A   Overcast
5:55 AM 56.3 °F - 54.3 °F 93% 29.96 in 0.8 mi Calm Calm - N/A   Overcast
6:15 AM 55.6 °F - 53.6 °F 93% 29.97 in 1.0 mi Calm Calm - N/A   Overcast
6:55 AM 55.4 °F - 53.2 °F 92% 29.98 in 0.5 mi Calm Calm - N/A   Overcast
7:15 AM 55.4 °F - 53.6 °F 94% 29.99 in 0.5 mi Calm Calm - N/A   Overcast
7:35 AM 55.9 °F - 54.1 °F 94% 29.99 in 0.8 mi Calm Calm - N/A   Overcast
7:55 AM 56.3 °F - 54.5 °F 94% 30.00 in 0.2 mi Calm Calm - N/A   Overcast
8:15 AM 58.1 °F - 56.3 °F 94% 30.00 in 0.2 mi Calm Calm - N/A   Overcast
8:35 AM 59.0 °F - 57.0 °F 93% 30.01 in 0.5 mi Calm Calm - N/A   Overcast
8:55 AM 60.6 °F - 58.6 °F 93% 30.01 in 0.2 mi Calm Calm - N/A   Overcast
9:15 AM 61.9 °F - 59.9 °F 93% 30.01 in 0.2 mi Calm Calm - N/A   Overcast
9:35 AM 63.1 °F - 61.3 °F 94% 30.01 in 0.8 mi Calm Calm - N/A   Overcast
9:55 AM 65.5 °F - 63.5 °F 93% 30.02 in 7.0 mi Calm Calm - N/A   Mostly Cloudy
10:15 AM 66.7 °F - 64.8 °F 93% 30.02 in 10.0 mi SE 3.5 mph - N/A   Clear
10:35 AM 69.3 °F - 64.2 °F 84% 30.02 in 10.0 mi South 6.9 mph - N/A   Clear
10:55 AM 71.2 °F - 63.3 °F 76% 30.01 in 10.0 mi South 4.6 mph - N/A   Clear
11:15 AM 76.1 °F - 62.4 °F 62% 30.00 in 10.0 mi SE 8.1 mph - N/A   Clear
11:35 AM 78.3 °F - 61.7 °F 57% 29.99 in 10.0 mi SE 8.1 mph - N/A   Clear
11:55 AM 78.1 °F - 61.0 °F 56% 29.98 in 10.0 mi SSE 5.8 mph - N/A   Clear
12:15 PM 79.2 °F - 60.6 °F 53% 29.97 in 10.0 mi SSE 10.4 mph - N/A   Clear
12:35 PM 80.6 °F 81.2 °F 59.5 °F 49% 29.97 in 10.0 mi SSE 8.1 mph - N/A   Clear
12:55 PM 81.3 °F 81.6 °F 58.6 °F 46% 29.96 in 10.0 mi SE 9.2 mph - N/A   Clear
1:15 PM 81.7 °F 81.9 °F 59.2 °F 46% 29.95 in 10.0 mi South 4.6 mph - N/A   Clear
1:35 PM 82.4 °F 82.5 °F 59.2 °F 45% 29.93 in 10.0 mi SE 10.4 mph - N/A   Clear
1:55 PM 82.9 °F 82.8 °F 59.0 °F 44% 29.93 in 10.0 mi SE 9.2 mph - N/A   Clear
2:15 PM 83.5 °F 83.4 °F 59.4 °F 44% 29.92 in 10.0 mi East 8.1 mph - N/A   Clear
2:35 PM 83.8 °F 83.6 °F 59.0 °F 43% 29.91 in 10.0 mi ESE 5.8 mph - N/A   Clear
2:55 PM 83.8 °F 83.6 °F 59.2 °F 43% 29.91 in 10.0 mi ESE 6.9 mph - N/A   Clear
3:15 PM 84.0 °F 83.8 °F 59.0 °F 43% 29.91 in 10.0 mi ESE 5.8 mph - N/A   Clear
3:35 PM 83.5 °F 83.1 °F 58.5 °F 42% 29.90 in 10.0 mi ESE 9.2 mph - N/A   Clear
3:55 PM 83.5 °F 83.1 °F 58.1 °F 42% 29.90 in 10.0 mi ESE 6.9 mph - N/A   Clear
4:35 PM 81.7 °F 81.8 °F 58.5 °F 45% 29.90 in 10.0 mi ESE 10.4 mph 16.1 mph N/A   Clear
4:55 PM 80.4 °F 80.8 °F 58.1 °F 46% 29.91 in 10.0 mi East 10.4 mph - N/A   Clear
5:15 PM 78.8 °F - 58.3 °F 49% 29.91 in 10.0 mi East 9.2 mph - N/A   Clear
5:35 PM 76.6 °F - 59.7 °F 56% 29.91 in 10.0 mi East 10.4 mph - N/A   Clear
5:55 PM 75.2 °F - 61.7 °F 63% 29.92 in 10.0 mi ESE 9.2 mph - N/A   Clear
6:15 PM 73.6 °F - 62.1 °F 67% 29.92 in 10.0 mi East 8.1 mph - N/A   Clear
6:35 PM 72.5 °F - 63.0 °F 72% 29.93 in 10.0 mi ESE 10.4 mph - N/A   Clear
6:55 PM 71.2 °F - 63.1 °F 75% 29.93 in 10.0 mi Calm Calm - N/A   Clear
7:15 PM 70.7 °F - 63.3 °F 77% 29.93 in 10.0 mi Calm Calm - N/A   Clear
7:35 PM 69.8 °F - 63.3 °F 80% 29.94 in 10.0 mi ESE 5.8 mph - N/A   Clear
7:55 PM 69.1 °F - 63.3 °F 82% 29.94 in 10.0 mi ESE 6.9 mph - N/A   Clear
8:15 PM 68.4 °F - 63.3 °F 84% 29.95 in 10.0 mi ESE 3.5 mph - N/A   Clear
8:35 PM 68.0 °F - 63.1 °F 84% 29.95 in 10.0 mi ESE 4.6 mph - N/A   Clear
8:55 PM 68.0 °F - 63.5 °F 85% 29.95 in 10.0 mi Calm Calm - N/A   Clear
9:15 PM 68.0 °F - 63.5 °F 85% 29.95 in 10.0 mi SE 8.1 mph - N/A   Clear
9:35 PM 68.4 °F - 63.7 °F 85% 29.95 in 10.0 mi SE 8.1 mph - N/A   Clear
9:55 PM 68.0 °F - 63.5 °F 85% 29.95 in 10.0 mi SE 8.1 mph - N/A   Clear
10:15 PM 67.6 °F - 63.7 °F 87% 29.95 in 10.0 mi SE 5.8 mph - N/A   Clear
10:35 PM 67.3 °F - 63.7 °F 88% 29.95 in 10.0 mi SE 5.8 mph - N/A   Clear
10:55 PM 67.3 °F - 63.9 °F 89% 29.95 in 7.0 mi SE 4.6 mph - N/A   Clear
11:15 PM 67.1 °F - 63.9 °F 89% 29.95 in 7.0 mi SE 4.6 mph - N/A   Clear
11:35 PM 67.1 °F - 63.7 °F 89% 29.94 in 7.0 mi ESE 4.6 mph - N/A   Clear
11:55 PM 67.1 °F - 63.9 °F 89% 29.94 in 7.0 mi ESE 4.6 mph - N/A   Clear